Theta_e
320 320 321 326 323 326 330 349 350 353 352 348 348 362 360 356 358 368 354 346 342 340 339 341 345 346 346 346 347 342 326 326 329 329 327 333 338 340 338 337 335 333 332 335 338 340 344 344 344
317 321 324 322 324 327 328 347 351 350 344 338 343 352 358 361 356 354 354 346 340 339 336 341 345 346 347 348 347 340 327 325 328 329 328 330 336 340 341 342 340 334 332 333 336 337 341 342 342
316 321 322 320 323 327 329 343 349 347 343 338 333 335 340 353 357 354 351 349 345 339 336 339 341 344 346 347 347 339 329 326 327 328 329 329 331 334 335 336 334 335 331 331 334 335 336 337 338
322 321 320 321 323 325 327 348 352 347 343 337 338 342 342 357 356 352 351 351 348 339 334 336 337 340 344 346 345 341 334 329 330 330 330 332 332 332 334 335 333 330 330 331 332 333 335 335 337
322 319 321 322 322 325 327 340 344 347 337 338 341 346 349 360 354 352 353 353 343 333 332 331 331 333 337 342 345 344 342 340 341 339 336 335 334 334 335 336 335 332 328 328 330 333 334 336 336
321 317 321 322 324 326 327 329 341 340 341 347 354 355 361 358 356 354 353 351 338 334 332 330 329 329 330 332 335 338 341 342 343 342 341 339 338 337 336 336 336 335 331 327 327 327 329 330 330
322 320 322 322 324 325 326 332 339 336 338 342 344 359 355 354 355 354 352 352 342 338 335 331 330 330 330 330 331 331 333 334 336 336 337 337 337 337 337 336 336 336 337 337 336 334 332 332 331
319 319 321 322 324 324 326 329 337 335 333 340 349 356 358 352 354 355 355 353 350 343 341 338 334 333 333 333 332 332 331 331 330 330 330 330 331 332 335 335 334 332 331 332 331 332 333 333 333
321 319 320 320 322 325 325 325 335 334 339 337 337 352 353 353 352 356 355 354 353 348 344 341 338 338 337 336 335 335 336 336 338 338 338 339 340 344 346 340 341 345 346 346 342 335 332 329 329
320 320 321 322 323 324 323 323 331 329 330 338 345 351 352 351 350 350 356 355 355 354 352 350 353 351 350 348 348 349 349 351 351 351 355 355 353 352 352 350 350 349 350 352 349 352 352 344 340
319 320 322 324 323 325 324 322 327 327 328 343 351 349 348 349 347 348 349 355 355 355 355 354 354 354 353 350 351 351 351 351 351 352 345 351 343 353 352 352 350 351 352 348 349 353 351 351 352
318 319 322 323 324 323 322 322 323 328 327 341 341 342 343 343 342 346 342 350 355 355 356 357 357 357 354 354 355 355 354 354 352 342 339 330 329 332 334 330 328 333 329 338 340 344 343 344 342
318 319 321 322 323 323 322 322 322 323 327 340 339 339 340 340 341 347 345 354 356 356 345 346 355 352 344 344 326 327 328 337 330 329 326 325 327 328 325 327 327 328 328 327 327 327 329 330 331
318 319 320 321 320 320 320 322 322 322 326 338 338 337 336 336 339 340 346 354 351 346 343 340 333 329 328 327 326 326 327 328 328 328 326 326 328 323 323 327 326 327 327 327 327 326 327 328 328
318 318 320 320 320 319 321 320 320 321 329 338 336 334 333 335 338 336 343 346 342 339 338 339 335 328 328 327 324 327 327 327 328 327 324 324 324 324 322 324 325 326 325 325 324 327 327 328 328
316 316 317 319 320 320 320 320 320 321 327 335 334 332 330 329 330 335 342 342 339 335 334 332 327 328 326 325 328 327 327 327 327 327 327 325 324 323 321 322 324 323 321 323 326 328 328 328 328
315 316 317 320 320 321 319 319 321 323 323 329 329 327 327 326 327 333 339 339 337 334 333 332 329 328 324 329 328 327 327 327 327 327 326 325 322 321 318 317 322 322 321 324 326 326 326 326 326
315 317 317 318 320 319 318 318 320 321 322 322 328 328 326 323 325 329 337 337 335 333 331 328 329 327 330 330 328 327 328 327 326 326 325 324 317 317 314 315 320 321 321 323 323 322 322 325 327
316 317 318 319 320 319 319 319 320 321 320 320 321 327 325 322 323 327 334 334 331 329 327 329 329 329 329 330 329 327 328 326 326 324 324 321 319 315 315 317 318 318 320 320 321 321 322 323 325
316 315 316 317 318 319 321 323 321 321 320 319 320 321 323 322 324 324 329 331 329 328 326 328 329 329 328 329 330 329 327 327 325 325 324 322 320 319 317 317 315 316 316 318 323 324 325 325 324
315 315 315 316 317 318 319 323 321 321 320 321 321 321 322 323 324 323 328 330 330 329 327 327 329 328 327 326 331 330 331 327 326 325 324 323 322 320 319 318 318 317 317 317 320 322 324 325 325
317 318 318 318 318 316 317 317 321 321 321 321 320 321 320 322 323 323 327 330 330 330 328 327 329 328 328 327 332 329 327 326 325 324 324 325 322 321 320 318 319 319 319 318 319 324 323 322 323
318 319 317 319 318 316 316 314 316 319 320 320 319 318 318 320 322 323 327 329 331 331 329 328 327 330 328 330 332 329 326 324 327 328 325 323 322 322 320 318 319 319 319 320 319 319 320 322 323
319 319 317 316 316 316 315 315 315 318 319 320 321 320 319 317 318 323 327 329 331 332 331 331 329 331 329 329 333 328 325 329 326 325 324 324 323 323 320 321 319 319 320 319 320 322 322 321 321
319 318 318 319 318 320 319 317 317 319 320 321 322 321 320 320 317 321 324 328 330 332 332 332 334 334 331 327 331 331 327 327 327 325 325 325 324 322 321 319 318 317 316 316 318 319 320 320 320
318 317 319 323 323 320 319 321 321 319 319 320 324 322 321 319 316 318 324 326 329 331 332 333 334 335 332 329 328 329 330 330 328 327 325 324 324 322 321 319 318 316 317 319 320 320 321 321 320
318 318 316 319 320 321 321 320 320 320 321 321 324 322 320 320 321 320 319 324 326 328 332 334 333 334 332 333 331 329 327 327 327 325 325 325 324 322 321 320 319 317 316 317 319 320 320 320 320
320 319 321 319 320 321 321 321 323 325 323 322 323 321 322 321 320 320 320 323 325 327 331 333 333 333 333 334 331 329 328 326 326 327 326 325 324 322 322 320 319 317 317 318 319 320 320 320 319
322 322 320 321 324 326 325 324 324 328 325 324 322 321 321 320 319 320 320 325 327 327 330 332 332 333 332 332 330 329 329 328 327 326 325 324 323 322 321 320 319 318 318 319 319 320 320 320 319
321 324 322 324 321 322 322 323 321 324 323 324 324 324 321 319 319 319 321 324 326 328 330 332 332 332 332 331 330 329 329 328 327 326 325 324 323 322 321 320 319 318 317 318 318 319 318 319 319
Wind_Speed
10 10 9 3 2 2 3 8 12 6 12 6 7 15 15 10 7 9 18 35 33 29 23 21 20 21 21 18 15 14 15 16 15 15 15 14 13 13 12 11 10 9 8 8 7 6 5 5 6
9 7 9 4 2 2 6 11 14 19 18 17 21 19 22 19 15 21 14 30 32 28 25 22 21 21 20 17 15 14 15 15 15 14 13 12 11 10 9 8 8 7 6 6 5 3 2 2 4
9 5 1 4 4 8 4 7 15 30 26 9 9 8 6 7 13 9 34 32 28 26 25 23 21 20 18 16 15 15 15 15 14 13 12 11 10 8 7 6 6 5 5 5 5 3 2 1 3
4 2 4 0 10 20 6 22 12 20 18 6 12 10 5 15 13 24 39 32 27 24 23 21 20 19 19 18 16 15 15 15 13 12 11 10 9 8 7 5 4 4 4 4 3 3 3 3 4
5 2 3 4 10 16 16 19 28 30 7 17 11 7 7 14 39 41 39 30 30 27 23 21 19 17 17 17 16 15 14 13 11 10 9 9 8 7 6 5 4 3 3 4 4 4 5 6 7
3 2 2 5 11 17 15 7 15 11 25 20 19 13 6 24 30 33 39 32 31 30 23 21 19 18 16 15 14 13 12 11 10 9 8 7 7 7 6 5 4 4 3 4 5 6 7 8 9
3 3 7 8 15 20 16 6 9 15 17 10 18 15 8 10 25 38 40 30 30 28 25 21 19 18 16 14 14 13 12 10 9 8 7 6 5 5 6 5 5 5 5 6 7 8 9 10 11
3 2 7 7 12 18 15 8 10 14 6 20 21 9 13 14 29 40 35 32 31 29 26 25 21 18 16 15 13 12 11 10 8 7 6 5 4 3 4 5 5 5 7 9 11 12 13 14 15
5 2 7 9 14 18 15 14 2 9 24 6 6 17 23 31 35 35 33 32 31 28 28 27 24 21 17 14 13 11 10 9 7 6 4 4 2 1 3 3 4 6 8 11 12 14 15 16 18
6 5 13 10 18 17 16 18 5 8 11 18 18 19 32 33 29 27 29 29 28 29 28 28 25 22 20 16 17 15 13 12 10 6 5 3 2 1 4 2 5 7 8 10 11 12 17 17 18
6 12 11 13 20 15 21 13 9 16 7 21 27 23 20 17 20 21 29 35 35 36 32 30 27 26 21 21 20 17 14 14 11 7 6 2 2 2 2 3 6 10 9 11 13 13 15 10 15
13 11 15 18 23 17 18 10 10 3 10 23 22 19 14 11 9 12 15 31 37 36 34 29 30 28 22 20 15 14 14 15 14 9 6 2 4 1 2 3 6 6 9 9 12 13 12 11 12
11 13 15 14 24 20 17 6 9 7 17 23 24 20 16 10 9 26 23 37 38 35 33 33 31 28 23 25 22 20 18 18 12 8 4 2 1 3 4 4 7 10 11 12 14 14 14 17 17
8 13 16 16 13 16 10 6 4 14 8 20 22 16 13 12 11 10 30 36 34 39 33 29 28 23 23 21 17 16 15 16 10 6 5 5 4 5 5 4 8 9 11 14 16 18 18 19 19
11 9 15 13 14 12 5 9 8 13 4 23 18 14 10 10 16 17 26 33 38 39 35 28 23 19 19 16 14 14 15 13 10 6 7 8 8 8 6 6 9 10 12 15 13 13 17 17 17
7 6 8 11 7 8 8 12 8 12 13 19 19 14 10 9 12 28 34 36 38 41 34 28 24 18 16 18 18 18 18 14 11 8 8 6 5 4 6 3 7 11 13 10 11 15 15 17 19
6 9 9 8 9 6 9 6 10 2 9 16 17 12 10 8 8 26 37 38 36 34 29 22 20 19 20 19 19 20 18 15 13 9 5 3 1 4 7 6 7 11 12 12 14 14 17 20 21
9 6 8 8 7 9 10 9 8 7 7 11 17 16 12 11 10 27 36 39 37 33 29 26 27 25 25 21 20 19 16 12 10 8 5 2 1 4 7 5 6 9 10 11 14 16 17 16 18
8 12 11 11 15 12 11 9 16 17 7 8 10 15 14 13 12 31 38 40 40 35 32 29 31 29 27 25 22 20 18 15 13 9 5 3 2 3 6 6 8 8 11 13 14 16 17 18 17
16 14 15 11 9 14 18 25 11 17 9 11 10 9 14 10 15 18 31 35 41 41 36 32 33 32 29 26 23 20 19 19 15 12 8 5 2 4 6 7 8 9 12 11 13 13 15 16 14
15 16 11 13 17 8 6 19 19 17 9 20 14 16 13 16 20 18 23 33 36 41 42 36 35 32 29 27 21 21 20 18 17 14 10 8 5 5 5 7 8 9 10 11 13 13 14 14 16
12 10 13 16 6 7 5 6 6 7 8 5 8 15 14 18 16 20 20 29 37 39 44 41 36 33 28 27 24 26 28 21 17 17 14 12 6 5 5 8 8 9 11 12 10 11 14 15 16
9 8 7 6 6 5 15 1 8 8 8 13 12 10 14 16 19 23 23 35 39 40 43 45 41 36 31 25 24 23 21 15 14 18 17 12 7 7 8 7 8 11 13 14 13 14 13 13 14
7 5 8 6 3 6 14 7 8 6 12 10 18 17 14 14 12 21 31 38 35 38 39 43 45 42 38 32 21 24 22 16 20 20 17 11 7 5 5 8 10 10 11 13 15 12 14 16 15
4 3 3 4 3 8 8 9 14 8 9 9 13 21 19 18 14 19 22 23 32 36 40 40 40 40 39 38 28 24 24 21 18 18 15 11 10 8 6 7 10 14 17 17 16 17 17 16 17
7 8 6 8 4 8 7 7 15 14 20 19 4 10 20 18 11 14 23 27 39 41 39 38 37 36 39 38 36 25 22 21 20 16 13 11 11 10 10 11 13 15 15 14 14 15 17 18 18
8 11 8 5 5 3 5 9 17 22 12 22 7 11 10 11 10 10 10 21 27 33 38 39 40 39 41 39 36 33 29 26 23 15 15 16 15 14 12 12 13 19 18 18 17 19 20 19 19
6 10 4 1 8 9 8 8 9 13 13 9 10 10 9 10 10 9 8 9 24 35 38 39 41 40 40 39 36 31 29 26 21 17 15 15 15 14 16 18 18 20 19 19 19 21 22 22 21
3 13 6 5 5 6 3 6 1 4 4 6 7 9 10 10 9 8 7 13 15 31 33 36 36 34 36 38 33 29 27 24 20 21 20 18 16 16 18 19 21 21 21 21 21 23 24 23 23
12 4 8 4 7 5 8 11 8 4 1 16 8 8 8 9 9 9 9 12 13 26 31 34 32 32 36 35 33 30 26 24 22 21 18 17 17 18 20 20 22 23 23 23 23 25 25 23 19
Wind_Direction
284 286 287 280 27 127 226 158 141 108 275 237 172 75 82 66 108 128 126 131 131 128 126 122 122 128 131 129 123 121 128 130 129 126 124 124 120 116 112 109 109 116 124 123 116 103 88 67 43
280 270 223 282 159 294 266 131 130 189 227 110 86 96 67 74 83 119 107 131 129 128 127 122 124 128 130 131 128 125 129 132 133 133 134 135 132 126 119 112 111 118 133 141 138 125 101 50 15
285 229 112 172 216 230 258 135 157 219 220 233 105 73 80 119 105 105 133 126 126 127 128 126 126 128 133 134 133 131 133 136 138 140 143 144 145 143 139 130 127 137 151 164 168 174 197 285 326
277 307 313 159 264 272 240 145 193 262 222 107 107 69 50 104 110 134 131 132 125 128 128 128 128 130 135 139 139 139 141 143 144 145 148 150 153 155 153 148 139 147 166 181 197 216 247 274 294
256 281 248 247 267 273 277 168 147 193 173 110 101 108 107 106 125 132 129 133 128 132 131 131 131 131 134 137 141 143 144 146 148 150 154 160 167 169 168 167 169 176 189 209 227 243 257 270 282
305 154 303 262 270 266 276 241 149 146 116 107 96 104 99 125 129 131 128 131 133 133 133 134 135 136 137 138 140 144 147 151 156 162 168 174 179 183 188 190 197 208 225 241 250 256 262 269 278
210 357 260 280 283 296 288 249 144 136 128 122 134 124 142 134 149 128 128 132 138 137 137 138 139 138 138 139 141 143 145 148 153 158 164 172 185 197 206 211 220 235 252 261 267 271 276 280 283
218 173 282 273 282 282 290 311 160 139 150 132 133 150 158 160 138 131 137 141 143 146 145 147 145 143 143 141 139 139 139 139 140 139 141 153 171 194 219 231 242 256 281 287 283 281 282 284 286
233 245 264 264 275 281 312 328 269 100 122 119 159 143 148 158 144 140 137 139 144 148 148 149 148 149 149 143 141 140 138 131 123 119 123 106 139 204 293 247 254 275 298 305 293 293 293 290 288
196 204 241 243 268 284 301 328 179 104 114 113 120 133 146 157 165 154 150 155 148 148 151 151 147 146 139 138 131 127 125 119 108 110 92 91 66 295 287 240 289 287 306 314 310 311 308 288 292
234 238 260 269 276 298 302 313 323 128 113 127 134 144 154 162 168 172 165 162 157 157 159 162 158 157 146 143 141 140 138 137 130 126 110 102 50 215 215 269 306 289 309 316 314 316 317 313 316
248 246 247 263 272 284 287 303 320 260 162 137 138 147 153 160 164 179 168 152 152 155 159 158 156 163 159 148 141 153 157 150 151 157 168 126 95 85 69 34 352 10 353 336 321 317 339 329 330
234 245 250 250 277 271 280 284 283 310 160 148 147 152 158 167 174 177 149 137 144 144 134 137 153 158 150 148 132 136 129 139 138 123 119 177 123 10 304 317 339 353 345 343 331 328 327 327 324
249 247 256 252 224 262 278 268 331 286 200 146 147 155 161 162 173 156 120 134 135 134 138 144 139 134 138 142 138 133 134 127 137 126 113 93 64 35 31 21 6 348 334 326 320 324 334 333 330
260 275 257 253 242 249 253 284 266 270 126 145 147 152 156 170 164 127 132 135 135 140 146 153 151 148 139 150 149 136 125 137 137 116 106 80 51 28 42 34 9 345 328 321 322 334 335 329 324
289 291 257 257 255 235 168 250 259 277 162 150 153 160 161 173 148 129 140 136 139 141 144 143 146 153 150 149 143 136 140 139 120 116 121 95 73 6 11 31 355 331 333 345 350 339 332 327 327
267 244 266 272 257 241 183 229 258 228 159 157 156 159 158 168 135 134 141 144 146 147 146 144 159 165 155 149 155 153 135 142 138 142 144 132 133 330 1 356 3 348 354 357 342 331 334 330 329
243 259 247 251 261 259 252 232 246 224 214 168 163 166 173 168 162 145 145 147 151 153 152 154 164 163 162 153 154 155 143 151 155 170 195 234 305 343 352 347 337 339 340 338 334 332 328 331 330
249 236 255 226 231 223 264 245 218 236 161 240 170 173 175 173 169 151 150 151 155 158 156 161 164 168 168 166 158 157 158 157 167 183 214 234 299 342 351 342 334 330 336 334 336 340 336 336 344
247 255 265 283 268 217 224 232 240 207 218 185 208 186 178 169 157 155 151 151 158 162 164 164 172 172 175 170 167 170 169 170 181 201 209 234 238 333 335 334 340 334 333 346 345 343 338 327 340
239 231 248 249 274 267 225 241 241 206 211 222 197 196 189 179 168 165 158 160 160 165 169 170 178 180 182 174 173 186 187 167 166 184 210 211 225 300 312 330 336 343 338 331 326 338 337 329 327
253 257 245 240 248 245 157 262 244 188 196 225 200 203 191 191 173 168 165 165 165 171 173 175 179 182 184 183 187 175 168 171 197 198 204 208 223 272 297 303 312 314 323 327 322 313 309 315 317
241 275 271 268 248 293 287 94 257 179 208 228 247 196 199 192 176 176 171 170 173 170 173 177 181 185 189 189 200 193 187 195 199 186 188 192 233 253 257 276 263 281 297 310 312 308 310 311 308
243 249 293 290 216 248 246 186 253 229 208 218 229 237 202 193 179 176 173 171 171 172 172 175 181 186 190 192 194 203 197 188 185 181 187 204 231 226 248 272 247 262 279 294 300 293 291 298 298
183 156 302 311 282 225 235 251 243 259 238 209 221 234 216 187 171 165 168 169 169 172 178 177 175 180 188 194 192 193 202 209 191 192 203 222 216 230 221 257 271 283 293 296 291 291 293 294 294
238 175 182 219 219 256 274 258 257 237 261 266 58 255 202 178 169 154 167 172 179 180 176 174 172 174 187 194 200 192 194 198 209 217 233 231 231 229 251 277 278 286 290 288 287 285 286 289 289
243 246 210 184 267 296 249 277 262 253 250 243 145 96 94 97 95 91 113 178 180 177 174 171 173 176 184 191 197 203 208 213 221 226 235 234 234 251 267 262 275 290 294 291 289 285 283 284 281
188 235 235 265 201 245 259 267 265 312 205 151 126 122 107 104 95 87 91 97 177 179 171 172 173 175 181 186 194 201 207 214 213 205 218 233 252 259 269 281 292 299 297 291 286 281 279 277 275
262 271 212 147 178 196 227 262 118 343 55 358 143 128 122 114 116 110 80 75 95 165 164 166 167 169 175 185 194 202 204 208 217 224 236 250 259 269 278 287 292 293 291 288 285 282 283 276 274
305 286 349 215 255 204 193 249 276 348 146 232 166 101 128 140 139 115 103 84 85 138 149 155 159 165 177 188 197 199 201 208 214 222 233 240 254 268 280 283 287 288 289 286 283 282 283 275 272